Regional Weather Roundup
Issued by NWS Goodland, KS

Home | Current Version | Previous Version | Text Only | Print | Product List | Glossary On
Versions: 1 2 3 4 5 6 7 8 9 10 11 12 13 14 15 16 17 18 19 20 21 22 23 24 25 26 27 28 29 30 31 32 33 34 35 36 37 38 39 40 41 42 43 44 45 46 47 48 49 50
420
ASUS43 KGLD 282259
RWRGLD

GOODLAND FORECAST AREA HOURLY WEATHER ROUNDUP
NATIONAL WEATHER SERVICE GOODLAND KS
500 PM MDT WED SEP 28 2016

...OFFICIAL OBSERVATIONS...

CITY           SKY/WX    TMP DP  RH WIND       PRES   REMARKS
GOODLAND KS    SUNNY     82  41  23 NE9       30.24R
HILL CITY KS   SUNNY     76  44  32 NE9       30.23R
IMPERIAL NEB   SUNNY     79  36  21 E12       30.25R
MCCOOK NEB     SUNNY     78  44  29 NE10      30.22R
AKRON CO       SUNNY     80  35  19 VRB5      30.29R
BURLINGTON CO  SUNNY     82  37  20 E9        30.27R
LIMON CO       SUNNY     79  30  16 E7        30.31S
$$

...UNOFFICIAL OBSERVATIONS...

CITY           SKY/WX    TMP DP  RH WIND       PRES   REMARKS
COLBY KS       SUNNY     79  48  34 NE12      30.25R
LENORA KS        N/A     75  32  20 MISG        N/A
NORTON KS      SUNNY     75  27  16 N8        30.22R
SHARON SPRINGS   N/A     81  46  28 E5G12       N/A
KIT CARSON CO    N/A     86  41  20 CALM        N/A
$$




USA.gov is the U.S. government's official web portal to all federal, state and local government web resources and services.